DELTA 1 DEB, 4499

Orbit data source: Space-Track

DELTA 1 DEB, 4499 is space debris in SSO originally from a launch on Fri, 16 Aug 1968 UTC launched from the Air Force Western Test Range (AFWTR). Debris objects in space refer to the collection of defunct objects orbiting the Earth. Examples of debris include non-operational satellites, rocket bodies, and fragments generated from explosions, collisions, or faulty payload assembly.

Loading next visibility...
Identifier
4499, 1968-069G
Orbit
SSO
Last TLE update
1 day ago
Origin
Manufacturer
Unknown
Mission
Spacecraft
Bus & Motor
Unknown
Mass
Unknown
Launch date (UTC)
1968-08-16 (57 years ago)
Launch vehicle
Unknown
Launch site
Air Force Western Test Range (AFWTR)
Object type
Payload
Rocket body
Debris
Shape & HBR
Unknown
Radar Cross Section
Small (<0.1 m²)

Expand to show TLE details & history

TLE from 1 day ago
0 DELTA 1 DEB
1 04499U 68069G   25128.99586144 -.00000020  00000-0  14689-3 0  9993
2 04499 101.3709 153.8790 0028731  66.4639 323.2798 12.51286816592704
Epoch: 2025-05-08T23:54Z
Definitive object data (Epoch: 2025-05-08T23:54:02.428Z)
Latitude
28.95582°
Longitude
-78.04657°
Altitude
1,444.404 km
Speed
7.15 km/s
True Right ascension
09h 50m 05s
True Declination
28° 49' 23"
Sunlit
Object was in daylight at TLE epoch
Visualization TLE readout
Latitude
14.5607°
Longitude
112.31042°
Altitude
1,465.136 km
Speed
7.129 km/s
Apparent Right ascension
22h 13m 38s
Apparent Declination
-9° 37' 47"
Sunlit
Object is in daylight
Visualization observer readout
Local Sidereal Time
09:45:54
Azimuth
346.604° N
Elevation
-59.091°
Doppler factor
1
Orbital elements
Apogee altitude
1,479.15 km
Perigee altitude
1,434.13 km
Semi-major axis
7,834.777 km
Eccentricity
0.0028731
Inclination
101.3709°
RAAN
153.879°
Arg. of periapsis
66.4639°
True anomaly
323.08238°
Mean anomaly
323.2798°
Eccentric anomaly
323.18115°
Mean motion
3.1297 °/min
BSTAR
0.00014689
Orbital period
115.03 mins
Loading maneuver chart data...
Loading SW <> Apogee altitude chart data...
Loading historical data...
Loading historical data...
Loading historical data...
Loading historical data...
Loading historical data...
Loading historical data...
Loading historical data...

DELTA 1 DEB Visibility forecast

Observer location: undefined°, undefined°

Span
Click to sort rows by Start time (UTC) header in descending order
Start Az.
Max El. time (UTC)
Max El. Az.
Max El.
End time (UTC)
End Az.
13 mins2025-05-10 02:41:56.344Z207.825° SW2025-05-10 02:48:56.344Z269.961° W26.389°2025-05-10 02:54:56.344Z320.281° NNW
9 mins2025-05-10 12:53:56.344Z61.177° ENE2025-05-10 12:57:56.344Z94.754° ESE17.97°2025-05-10 13:02:56.344Z132.778° SE
14 mins2025-05-10 14:44:56.344Z15.3° NNE2025-05-10 14:51:56.344Z230.662° WSW44.569°2025-05-10 14:58:56.344Z202.253° SSW
8 mins2025-05-10 16:39:56.344Z336.881° NNW2025-05-10 16:42:56.344Z311.674° NW18.468°2025-05-10 16:47:56.344Z271.432° WNW
11 mins2025-05-10 23:52:56.344Z104.386° ESE2025-05-10 23:57:56.344Z61.006° ENE24.892°2025-05-11 00:03:56.344Z7.562° NNE
|